Kearney, NE

10:31 AM CST on February 13, 2016 (GMT -0600)
Kearney Municipal

Weather History for KEAR - March, 2012

Change the Weather History Date:

Saturday, March 17, 2012

  Actual Average Record
Temperature  
Mean Temperature 69 °F 38 °F  
Max Temperature 84 °F 51 °F 84 °F (2012)
Min Temperature 54 °F 25 °F -8 °F (1906)
Degree Days  
Heating Degree Days 0 27  
Month to date heating degree days 507  
Since 1 July heating degree days 5433  
Cooling Degree Days 4 0  
Month to date cooling degree days 0  
Year to date cooling degree days 0  
Growing Degree Days 18 (Base 50)    
Moisture  
Dew Point 53 °F    
Average Humidity 59    
Maximum Humidity 93    
Minimum Humidity 25    
Precipitation  
Precipitation 0.00 in - 3.20 in (1987)
Sea Level Pressure  
Sea Level Pressure 29.70 in    
Wind  
Wind Speed 20 mph (South)    
Max Wind Speed 31 mph    
Max Gust Speed 37 mph    
Visibility 10 miles    
Events      
T = Trace of Precipitation, MM = Missing Value Source: NWS Daily Summary

Daily Weather History Graph

Daily Weather History Graph

Search for Another Location

Airport or City:

Trip Planner

Search our weather history database for the weather conditions in past years. The results will help you decide how hot, cold, wet, or windy it might be!

Date:

Astronomy

Mar. 17, 2012 Rise Set
Actual Time 7:43 AM CDT 7:45 PM CDT
Civil Twilight 7:16 AM CDT 8:12 PM CDT
Nautical Twilight 6:44 AM CDT 8:44 PM CDT
Astronomical Twilight 6:12 AM CDT 9:17 PM CDT
Moon 4:47 AM CDT (3/17) 3:09 PM CDT (3/17)
Length of Visible Light 12h 56m
Length of Day
12h 02m
Waning Crescent, 23% of the Moon is Illuminated
Mar 17
Waning Crescent
Mar 22
New
Mar 30
First Quarter
Apr 6
Full
Apr 13
Last Quarter

Hourly Weather History & Observations

Time (CDT) Temp. Dew Point Humidity Pressure Visibility Wind Dir Wind Speed Gust Speed Precip Events Conditions
12:15 AM 64.4 °F 59.0 °F 83% 29.77 in 10.0 mi South 21.9 mph 31.1 mph N/A   Clear
12:35 AM 64.4 °F 59.0 °F 83% 29.76 in 10.0 mi South 23.0 mph - N/A   Clear
12:55 AM 64.4 °F 59.0 °F 83% 29.76 in 10.0 mi South 21.9 mph 28.8 mph N/A   Clear
1:15 AM 64.4 °F 57.2 °F 77% 29.75 in 10.0 mi SSE 21.9 mph 26.5 mph N/A   Clear
1:35 AM 62.6 °F 57.2 °F 82% 29.75 in 10.0 mi SSE 19.6 mph - N/A   Clear
1:55 AM 62.6 °F 57.2 °F 82% 29.75 in 10.0 mi SSE 17.3 mph 27.6 mph N/A   Clear
2:15 AM 62.6 °F 57.2 °F 82% 29.75 in 10.0 mi SSE 18.4 mph - N/A   Clear
2:35 AM 60.8 °F 57.2 °F 88% 29.75 in 10.0 mi South 16.1 mph - N/A   Clear
2:55 AM 60.8 °F 57.2 °F 88% 29.75 in 10.0 mi South 12.7 mph - N/A   Clear
3:15 AM 60.8 °F 57.2 °F 88% 29.74 in 10.0 mi South 13.8 mph - N/A   Clear
3:35 AM 60.8 °F 57.2 °F 88% 29.74 in 10.0 mi South 13.8 mph - N/A   Clear
3:55 AM 60.8 °F 57.2 °F 88% 29.73 in 10.0 mi South 13.8 mph - N/A   Clear
4:15 AM 60.8 °F 55.4 °F 82% 29.73 in 10.0 mi South 13.8 mph - N/A   Clear
4:35 AM 59.0 °F 55.4 °F 88% 29.72 in 10.0 mi South 13.8 mph - N/A   Clear
4:55 AM 57.2 °F 55.4 °F 94% 29.72 in 10.0 mi South 11.5 mph - N/A   Clear
5:15 AM 57.2 °F 55.4 °F 94% 29.71 in 10.0 mi South 11.5 mph - N/A   Clear
5:35 AM 57.2 °F 55.4 °F 94% 29.71 in 10.0 mi South 12.7 mph - N/A   Clear
5:55 AM 57.2 °F 53.6 °F 88% 29.71 in 10.0 mi South 12.7 mph - N/A   Clear
6:15 AM 57.2 °F 53.6 °F 88% 29.71 in 10.0 mi South 13.8 mph - N/A   Clear
6:35 AM 57.2 °F 53.6 °F 88% 29.72 in 10.0 mi South 15.0 mph - N/A   Clear
6:55 AM 55.4 °F 53.6 °F 94% 29.72 in 10.0 mi South 11.5 mph - N/A   Clear
7:15 AM 55.4 °F 53.6 °F 94% 29.72 in 9.0 mi SSE 12.7 mph - N/A   Clear
7:35 AM 53.6 °F 53.6 °F 100% 29.72 in 5.0 mi SSE 8.1 mph - N/A   Partly Cloudy
7:55 AM 53.6 °F 51.8 °F 94% 29.72 in 5.0 mi SSE 11.5 mph - N/A   Partly Cloudy
8:15 AM 53.6 °F 51.8 °F 94% 29.72 in 5.0 mi SSE 10.4 mph - N/A   Clear
8:35 AM 55.4 °F 53.6 °F 94% 29.72 in 6.0 mi SSE 10.4 mph - N/A   Clear
8:55 AM 57.2 °F 55.4 °F 94% 29.72 in 8.0 mi South 12.7 mph - N/A   Clear
9:15 AM 57.2 °F 55.4 °F 94% 29.72 in 9.0 mi South 15.0 mph - N/A   Mostly Cloudy
9:35 AM 59.0 °F 57.2 °F 94% 29.72 in 10.0 mi South 17.3 mph - N/A   Overcast
9:55 AM 60.8 °F 57.2 °F 88% 29.72 in 10.0 mi South 20.7 mph - N/A   Overcast
10:15 AM 62.6 °F 57.2 °F 82% 29.72 in 10.0 mi South 18.4 mph - N/A   Overcast
10:35 AM 62.6 °F 55.4 °F 77% 29.72 in 10.0 mi South 20.7 mph - N/A   Overcast
10:55 AM 64.4 °F 55.4 °F 73% 29.73 in 10.0 mi South 19.6 mph 23.0 mph N/A   Mostly Cloudy
11:15 AM 66.2 °F 55.4 °F 68% 29.73 in 10.0 mi South 18.4 mph - N/A   Partly Cloudy
11:35 AM 66.2 °F 53.6 °F 64% 29.73 in 10.0 mi South 16.1 mph 24.2 mph N/A   Clear
11:55 AM 69.8 °F 53.6 °F 56% 29.72 in 10.0 mi South 16.1 mph - N/A   Clear
12:15 PM 69.8 °F 53.6 °F 56% 29.72 in 10.0 mi SSW 16.1 mph 23.0 mph N/A   Clear
12:35 PM 71.6 °F 53.6 °F 53% 29.71 in 10.0 mi SSW 18.4 mph 23.0 mph N/A   Clear
12:55 PM 73.4 °F 53.6 °F 50% 29.71 in 10.0 mi South 20.7 mph - N/A   Clear
1:15 PM 75.2 °F 48.2 °F 38% 29.70 in 10.0 mi South 21.9 mph 26.5 mph N/A   Clear
1:35 PM 77.0 °F 48.2 °F 36% 29.69 in 10.0 mi South 25.3 mph 31.1 mph N/A   Clear
1:55 PM 78.8 °F 48.2 °F 34% 29.69 in 10.0 mi South 21.9 mph 28.8 mph N/A   Clear
2:15 PM 78.8 °F 48.2 °F 34% 29.68 in 10.0 mi South 23.0 mph 28.8 mph N/A   Clear
2:35 PM 80.6 °F 50.0 °F 34% 29.67 in 10.0 mi South 20.7 mph 27.6 mph N/A   Clear
2:55 PM 82.4 °F 48.2 °F 30% 29.67 in 10.0 mi South 18.4 mph 27.6 mph N/A   Clear
3:15 PM 82.4 °F 48.2 °F 30% 29.65 in 10.0 mi South 26.5 mph 29.9 mph N/A   Clear
3:35 PM 84.2 °F 48.2 °F 29% 29.64 in 10.0 mi South 24.2 mph 29.9 mph N/A   Clear
3:55 PM 84.2 °F 46.4 °F 27% 29.64 in 10.0 mi South 28.8 mph 36.8 mph N/A   Clear
4:15 PM 84.2 °F 44.6 °F 25% 29.63 in 10.0 mi South 21.9 mph 29.9 mph N/A   Clear
4:35 PM 84.2 °F 44.6 °F 25% 29.63 in 10.0 mi South 25.3 mph 34.5 mph N/A   Clear
4:55 PM 84.2 °F 44.6 °F 25% 29.62 in 10.0 mi South 25.3 mph 36.8 mph N/A   Clear
5:15 PM 84.2 °F 44.6 °F 25% 29.62 in 10.0 mi South 28.8 mph 38.0 mph N/A   Clear
5:35 PM 84.2 °F 44.6 °F 25% 29.62 in 10.0 mi South 28.8 mph 35.7 mph N/A   Clear
5:55 PM 82.4 °F 48.2 °F 30% 29.62 in 10.0 mi South 28.8 mph 36.8 mph N/A   Clear
6:15 PM 82.4 °F 48.2 °F 30% 29.63 in 10.0 mi South 27.6 mph 40.3 mph N/A   Clear
6:35 PM 80.6 °F 51.8 °F 37% 29.63 in 10.0 mi South 26.5 mph 36.8 mph N/A   Clear
6:55 PM 80.6 °F 51.8 °F 37% 29.63 in 10.0 mi South 31.1 mph 35.7 mph N/A   Clear
7:15 PM 78.8 °F 51.8 °F 39% 29.64 in 10.0 mi South 23.0 mph 31.1 mph N/A   Clear
7:35 PM 75.2 °F 51.8 °F 44% 29.64 in 10.0 mi South 23.0 mph 27.6 mph N/A   Clear
7:55 PM 73.4 °F 51.8 °F 47% 29.64 in 10.0 mi SSE 17.3 mph - N/A   Clear
8:15 PM 73.4 °F 53.6 °F 50% 29.65 in 10.0 mi SSE 19.6 mph - N/A   Clear
8:35 PM 73.4 °F 53.6 °F 50% 29.65 in 10.0 mi SSE 21.9 mph 26.5 mph N/A   Clear
8:55 PM 71.6 °F 55.4 °F 57% 29.65 in 10.0 mi SSE 24.2 mph 34.5 mph N/A   Clear
9:15 PM 71.6 °F 57.2 °F 60% 29.66 in 10.0 mi SSE 26.5 mph 36.8 mph N/A   Clear
9:35 PM 69.8 °F 57.2 °F 64% 29.67 in 10.0 mi SSE 25.3 mph 32.2 mph N/A   Clear
9:55 PM 69.8 °F 57.2 °F 64% 29.67 in 10.0 mi SSE 26.5 mph 35.7 mph N/A   Clear
10:15 PM 68.0 °F 57.2 °F 68% 29.68 in 10.0 mi SSE 27.6 mph 31.1 mph N/A   Clear
10:35 PM 66.2 °F 57.2 °F 73% 29.69 in 10.0 mi South 27.6 mph 31.1 mph N/A   Clear
10:55 PM 66.2 °F 57.2 °F 73% 29.69 in 10.0 mi SSE 21.9 mph 32.2 mph N/A   Clear
11:15 PM 66.2 °F 57.2 °F 73% 29.69 in 10.0 mi SSE 23.0 mph 29.9 mph N/A   Clear
11:35 PM 64.4 °F 59.0 °F 83% 29.69 in 10.0 mi South 21.9 mph 31.1 mph N/A   Clear
11:55 PM 64.4 °F 59.0 °F 83% 29.69 in 10.0 mi SSE 24.2 mph 33.4 mph N/A   Clear